Regional Weather Roundup
Issued by NWS

Home | Current Version | Previous Version | Graphics & Text | Print | Product List | Glossary On
Versions: 1 2 3 4 5 6 7 8 9 10 11 12 13 14 15 16 17 18 19 20 21 22 23 24 25 26 27 28 29 30 31 32 33 34 35 36 37 38 39 40 41 42 43 44 45 46 47 48 49 50
000
ASUS43 KLMK 301202
RWRKY
KENTUCKY REGIONAL WEATHER ROUNDUP
NATIONAL WEATHER SERVICE LOUISVILLE KY
800 AM EDT SAT AUG 30 2014

NOTE "FAIR" INDICATES FEW OR NO CLOUDS BELOW 12,000 FEET
WITH NO SIGNIFICANT WEATHER AND/OR OBSTRUCTIONS TO VISIBILITY.

KYZ001>023-026-027-061>063-070>075-301300-
WESTERN AND SOUTH CENTRAL KENTUCKY

CITY           SKY/WX    TMP DP  RH WIND       PRES   REMARKS
PADUCAH        CLOUDY    74  71  91 CALM      30.00R
HENDERSON      CLOUDY    72  68  88 CALM      30.01S
OWENSBORO      NOT AVBL
HOPKINSVILLE   MOCLDY    74  66  74 S5        30.03S
BOWLING GREEN  CLOUDY    72  64  76 S5        30.06R
GLASGOW        PTCLDY    69  63  79 CALM      30.07S
$$

KYZ024-025-028>034-038-045-046-053-301300-
NORTH CENTRAL KENTUCKY

CITY           SKY/WX    TMP DP  RH WIND       PRES   REMARKS
LOUISVILLE/SDF CLOUDY    73  65  75 SE6       30.04R
LOUISVILLE/LOU PTCLDY    72  64  76 CALM      30.05R
FORT KNOX      MOCLDY    70  66  87 S2        30.04S
$$

KYZ035>037-039>044-047>052-055>060-089>105-301300-
NORTHEAST KENTUCKY

CITY           SKY/WX    TMP DP  RH WIND       PRES   REMARKS
LEXINGTON      CLEAR     72  66  81 SE7       30.09R
COVINGTON      MOCLDY    72  65  78 S8        30.06S
FRANKFORT      MOCLDY    71  66  84 SE5       30.07R
$$

KYZ054-064>069-076>088-106>120-301300-
SOUTHEAST KENTUCKY

CITY           SKY/WX    TMP DP  RH WIND       PRES   REMARKS
JACKSON        SUNNY     73  66  78 SE3       30.15R
LONDON         CLEAR     71  66  84 CALM      30.14S
SOMERSET       CLEAR     72  63  73 CALM      30.13R
MIDDLESBORO    SUNNY     66  64  95 CALM      30.17S
MONTICELLO     MOSUNNY   75  65  71 CALM      30.13R
$$




USA.gov is the U.S. government's official web portal to all federal, state and local government web resources and services.